When you browse on this site, cookies collect data to enhance your experience and personalize the content and advertising you see.
Visit our Privacy Policy to learn more. By continuing to use the site, you agree to this use of cookies and data.
  • în România
  • Lista ţărilor
  • Pe 7 zile
  • Temperatura apei
  • Hartă satelitară
  • Meteo pe hartă
  • Widget-uri
  • user-avatar
    Intrare

    Meteo pe oră la Arona

    Astăzi, 18 Iulie, Joi

    Timp Temperatura Precipitaţii Vânt Presiune Umiditate
    00:00 +20°C° 0 mm 1 m/s 733 mmHg 77%
    01:00 +20°C° 0 mm 1 m/s 733 mmHg 78%
    02:00 +20°C° 0.1 mm 1 m/s 733 mmHg 78%
    03:00 +20°C° 0.1 mm 1 m/s 733 mmHg 79%
    04:00 +18°C° 0.1 mm 2 m/s 733 mmHg 79%
    05:00 +20°C° 0.6 mm 1 m/s 733 mmHg 80%
    06:00 +20°C° 0.6 mm 1 m/s 733 mmHg 81%
    07:00 +21°C° 0 mm 1 m/s 734 mmHg 80%
    08:00 +23°C° 0.3 mm 1 m/s 734 mmHg 73%
    09:00 +25°C° 0.3 mm 1 m/s 734 mmHg 66%
    10:00 +26°C° 0.3 mm 1 m/s 734 mmHg 59%
    11:00 +28°C° 0.3 mm 1 m/s 734 mmHg 55%
    12:00 +29°C° 0.3 mm 1 m/s 734 mmHg 50%
    13:00 +30°C° 0.3 mm 1 m/s 734 mmHg 45%
    14:00 +30°C° 0.2 mm 1 m/s 734 mmHg 46%
    15:00 +30°C° 0.2 mm 2 m/s 734 mmHg 48%
    16:00 +29°C° 0.2 mm 2 m/s 734 mmHg 50%
    17:00 +28°C° 0.5 mm 2 m/s 734 mmHg 58%
    18:00 +27°C° 0.5 mm 1 m/s 734 mmHg 66%
    19:00 +25°C° 0.5 mm 1 m/s 734 mmHg 74%
    20:00 +24°C° 0.3 mm 1 m/s 734 mmHg 77%
    21:00 +23°C° 0.3 mm 1 m/s 735 mmHg 79%
    22:00 +21°C° 0.3 mm 1 m/s 735 mmHg 81%
    23:00 +21°C° 0.2 mm 1 m/s 736 mmHg 82%

    Mâine, 19 Iulie, Vineri

    Timp Temperatura Precipitaţii Vânt Presiune Umiditate
    00:00 +19°C° 0.2 mm 2 m/s 736 mmHg 82%
    01:00 +19°C° 0.2 mm 2 m/s 736 mmHg 83%
    02:00 +18°C° 0.2 mm 2 m/s 736 mmHg 83%
    03:00 +18°C° 0.2 mm 2 m/s 736 mmHg 84%
    04:00 +18°C° 0.2 mm 2 m/s 736 mmHg 84%
    05:00 +19°C° 0 mm 2 m/s 736 mmHg 83%
    06:00 +20°C° 0 mm 1 m/s 736 mmHg 81%
    07:00 +21°C° 0 mm 1 m/s 736 mmHg 80%
    08:00 +23°C° 0.1 mm 1 m/s 736 mmHg 74%
    09:00 +25°C° 0.1 mm 1 m/s 736 mmHg 68%
    10:00 +27°C° 0.1 mm 1 m/s 736 mmHg 62%
    11:00 +28°C° 0.4 mm 1 m/s 736 mmHg 62%
    12:00 +28°C° 0.4 mm 1 m/s 736 mmHg 62%
    13:00 +28°C° 0.4 mm 2 m/s 736 mmHg 62%
    14:00 +28°C° 0.5 mm 1 m/s 736 mmHg 64%
    15:00 +28°C° 0.5 mm 1 m/s 736 mmHg 66%
    16:00 +28°C° 0.5 mm 1 m/s 736 mmHg 67%
    17:00 +27°C° 0.5 mm 1 m/s 736 mmHg 71%
    18:00 +27°C° 0.5 mm 1 m/s 736 mmHg 75%
    19:00 +24°C° 0.5 mm 0 m/s 736 mmHg 78%
    20:00 +25°C° 0.2 mm 1 m/s 737 mmHg 80%
    21:00 +23°C° 0.2 mm 1 m/s 737 mmHg 82%
    22:00 +22°C° 0.2 mm 1 m/s 737 mmHg 84%
    23:00 +22°C° 0.1 mm 1 m/s 737 mmHg 84%

    Poimâine, 20 Iulie, Sâmbătă

    Timp Temperatura Precipitaţii Vânt Presiune Umiditate
    00:00 +21°C° 0.1 mm 1 m/s 737 mmHg 85%
    01:00 +21°C° 0.1 mm 1 m/s 737 mmHg 85%
    02:00 +21°C° 0 mm 1 m/s 737 mmHg 85%
    03:00 +21°C° 0 mm 1 m/s 737 mmHg 85%
    04:00 +21°C° 0 mm 1 m/s 737 mmHg 84%
    05:00 +21°C° 0 mm 1 m/s 737 mmHg 83%
    06:00 +22°C° 0 mm 1 m/s 738 mmHg 83%
    07:00 +22°C° 0 mm 1 m/s 738 mmHg 82%
    08:00 +23°C° 0.1 mm 1 m/s 738 mmHg 81%
    09:00 +24°C° 0.1 mm 1 m/s 738 mmHg 79%
    10:00 +23°C° 0.1 mm 0 m/s 738 mmHg 78%
    11:00 +26°C° 0.3 mm 1 m/s 738 mmHg 75%
    12:00 +27°C° 0.3 mm 1 m/s 738 mmHg 71%
    13:00 +28°C° 0.3 mm 1 m/s 738 mmHg 68%
    14:00 +29°C° 0.2 mm 1 m/s 738 mmHg 64%
    15:00 +29°C° 0.2 mm 1 m/s 738 mmHg 61%
    16:00 +30°C° 0.2 mm 1 m/s 738 mmHg 57%
    17:00 +29°C° 0 mm 1 m/s 738 mmHg 62%
    18:00 +28°C° 0 mm 1 m/s 738 mmHg 67%
    19:00 +27°C° 0 mm 1 m/s 738 mmHg 72%
    20:00 +26°C° 0 mm 1 m/s 739 mmHg 75%
    21:00 +25°C° 0 mm 1 m/s 739 mmHg 78%
    22:00 +24°C° 0 mm 1 m/s 739 mmHg 80%
    23:00 +23°C° 0 mm 1 m/s 740 mmHg 81%

    21 Iulie, Duminică

    Timp Temperatura Precipitaţii Vânt Presiune Umiditate
    00:00 +23°C° 0 mm 1 m/s 740 mmHg 81%
    01:00 +22°C° 0 mm 1 m/s 740 mmHg 82%
    02:00 +22°C° 0 mm 1 m/s 740 mmHg 81%
    03:00 +22°C° 0 mm 1 m/s 740 mmHg 81%
    04:00 +22°C° 0 mm 1 m/s 740 mmHg 80%
    05:00 +23°C° 0 mm 1 m/s 740 mmHg 78%
    06:00 +23°C° 0 mm 1 m/s 740 mmHg 76%
    07:00 +24°C° 0 mm 1 m/s 740 mmHg 74%
    08:00 +26°C° 0 mm 1 m/s 740 mmHg 68%
    09:00 +28°C° 0 mm 1 m/s 741 mmHg 62%
    10:00 +30°C° 0 mm 1 m/s 741 mmHg 55%
    11:00 +31°C° 0 mm 1 m/s 741 mmHg 53%
    12:00 +32°C° 0 mm 1 m/s 740 mmHg 51%
    13:00 +32°C° 0 mm 2 m/s 740 mmHg 49%
    14:00 +32°C° 0 mm 2 m/s 740 mmHg 51%
    15:00 +32°C° 0 mm 2 m/s 740 mmHg 52%
    16:00 +32°C° 0 mm 2 m/s 740 mmHg 54%
    17:00 +31°C° 0.3 mm 1 m/s 740 mmHg 61%
    18:00 +30°C° 0.3 mm 1 m/s 740 mmHg 68%
    19:00 +29°C° 0.3 mm 1 m/s 740 mmHg 75%
    20:00 +27°C° 0 mm 1 m/s 740 mmHg 77%
    21:00 +26°C° 0 mm 1 m/s 741 mmHg 79%
    22:00 +25°C° 0 mm 1 m/s 741 mmHg 82%
    23:00 +24°C° 0 mm 1 m/s 741 mmHg 81%

    22 Iulie, Luni

    Timp Temperatura Precipitaţii Vânt Presiune Umiditate
    00:00 +24°C° 0 mm 1 m/s 741 mmHg 81%
    01:00 +23°C° 0 mm 2 m/s 741 mmHg 81%
    02:00 +23°C° 0 mm 2 m/s 741 mmHg 79%
    03:00 +23°C° 0 mm 2 m/s 741 mmHg 78%
    04:00 +23°C° 0 mm 1 m/s 741 mmHg 77%
    05:00 +24°C° 0 mm 1 m/s 741 mmHg 75%
    06:00 +24°C° 0 mm 1 m/s 742 mmHg 73%
    07:00 +25°C° 0 mm 1 m/s 742 mmHg 71%
    08:00 +27°C° 0 mm 1 m/s 742 mmHg 65%
    09:00 +30°C° 0 mm 1 m/s 742 mmHg 59%
    10:00 +30°C° 0 mm 0 m/s 742 mmHg 54%
    11:00 +33°C° 0 mm 1 m/s 742 mmHg 51%
    12:00 +33°C° 0 mm 1 m/s 741 mmHg 48%
    13:00 +35°C° 0 mm 2 m/s 741 mmHg 46%
    14:00 +35°C° 0.1 mm 2 m/s 741 mmHg 47%
    15:00 +35°C° 0.1 mm 2 m/s 741 mmHg 48%
    16:00 +35°C° 0.1 mm 2 m/s 740 mmHg 49%
    17:00 +32°C° 0.1 mm 1 m/s 740 mmHg 57%
    18:00 +31°C° 0.1 mm 1 m/s 740 mmHg 64%
    19:00 +28°C° 0.1 mm 0 m/s 740 mmHg 71%
    20:00 +29°C° 0 mm 1 m/s 740 mmHg 73%
    21:00 +27°C° 0 mm 1 m/s 741 mmHg 75%
    22:00 +26°C° 0 mm 1 m/s 741 mmHg 78%
    23:00 +26°C° 0 mm 1 m/s 741 mmHg 77%

    23 Iulie, Marţi

    Timp Temperatura Precipitaţii Vânt Presiune Umiditate
    00:00 +25°C° 0 mm 1 m/s 741 mmHg 77%
    01:00 +25°C° 0 mm 2 m/s 741 mmHg 76%
    02:00 +24°C° 0 mm 2 m/s 741 mmHg 76%
    03:00 +24°C° 0 mm 2 m/s 740 mmHg 75%
    04:00 +24°C° 0 mm 2 m/s 740 mmHg 74%
    05:00 +25°C° 0 mm 1 m/s 740 mmHg 73%
    06:00 +25°C° 0 mm 1 m/s 740 mmHg 72%
    07:00 +26°C° 0 mm 1 m/s 740 mmHg 72%
    08:00 +28°C° 0 mm 1 m/s 740 mmHg 65%
    09:00 +31°C° 0 mm 1 m/s 740 mmHg 59%
    10:00 +33°C° 0 mm 1 m/s 740 mmHg 53%
    11:00 +33°C° 0 mm 1 m/s 740 mmHg 50%
    12:00 +34°C° 0 mm 1 m/s 739 mmHg 47%
    13:00 +36°C° 0 mm 2 m/s 739 mmHg 44%
    14:00 +36°C° 0 mm 2 m/s 739 mmHg 45%
    15:00 +35°C° 0 mm 2 m/s 738 mmHg 46%
    16:00 +35°C° 0 mm 2 m/s 738 mmHg 47%
    17:00 +34°C° 0 mm 2 m/s 738 mmHg 53%
    18:00 +32°C° 0 mm 1 m/s 738 mmHg 60%
    19:00 +30°C° 0 mm 1 m/s 738 mmHg 67%
    20:00 +29°C° 0 mm 1 m/s 738 mmHg 70%
    21:00 +28°C° 0 mm 1 m/s 738 mmHg 72%
    22:00 +27°C° 0 mm 1 m/s 738 mmHg 75%
    23:00 +26°C° 0 mm 1 m/s 738 mmHg 75%
    Arată mai mult